Location: Unspecified
(52.4292°N, 19.3359°E)
Time: 00:03:54
(UTC+02:00)

Altair - Pass Details

Date: 21 May 2024
Orbit: 1502 x 1682 km, 47.2° (Epoch: 19 June)

Event Time Altitude Azimuth Distance (km) Brightness Sun altitude
Rises 12:39:28 0° 245° (WSW) 4,857 10.3 57.9°
Reaches altitude 10° 12:42:36 10° 242° (WSW) 3,890 10.0 57.9°
Maximum altitude 12:52:23 61° 166° (SSE) 1,861 10.4 57.8°
Drops below altitude 10° 13:02:18 10° 89° (E) 3,946 9.7 57.6°
Sets 13:05:30 0° 87° (E) 4,929 10.1 57.5°
